World > North America > United States > Nebraska

Brainard, Nebraska Regional Weather

Lat: 41.18N, Lon: 97W
Wx Zone: NEZ050Web Search
Brainard Weather Warning NWS WEATHER ALERT FOR THE BRAINARD, NE AREA - Issued: 1156 AM CDT Mon Aug 10 2020 Brainard Weather Warning  

Helpful Tip: Abbreviated, 7 Day, 14 Day Forecasts. There is a weather forecast for every taste.

Feedback

Brainard, NE Regional Weather

Expires:202008101900;;239223
ASUS43 KOAX 101810
RWRNE 

WEATHER ROUNDUP FOR NEBRASKA
NATIONAL WEATHER SERVICE OMAHA NE
100 PM CDT MON AUG 10 2020

NOTES: SATELLITE DATA IS BEING USED TO AUGMENT CLOUD COVER ABOVE
       12000 FEET.
       "FAIR" INDICATES FEW OR NO CLOUDS BELOW 12,000 FEET WITH NO
       SIGNIFICANT WEATHER AND/OR OBSTRUCTIONS TO VISIBILITY.

   

NEZ050>053-065>068-078-088>093-101900-
SOUTHEAST NEBRASKA
  
CITY           SKY/WX    TMP DP  RH WIND       PRES   REMARKS
LINCOLN        SUNNY     78  60  53 NE12      30.00F                  
6HR MIN TEMP:  68; 6HR MAX TEMP:  80; 6HR PCP: TRACE;                

OMAHA EPPLEY   MOSUNNY   78  57  48 E8        29.97F                  
6HR MIN TEMP:  66; 6HR MAX TEMP:  83; 6HR PCP: TRACE;                

BEATRICE       MOSUNNY   79  65  61 NE13      30.02R                  
FALLS CITY     CLOUDY    76  65  68 N10G20    29.99F                  
6HR MIN TEMP:  74; 6HR MAX TEMP:  85; 6HR PCP: TRACE;                

NEBRASKA CITY  MOSUNNY   77  67  70 NE12      30.02R                  
PLATTSMOUTH    MOSUNNY   74  61  63 NE8       30.01F                  
$$


SKY/WX - Weather  TMP - Temperature  DP - Dew Point  RH - Relative Humidity
WIND - Wind Direction/Speed PRES - Barometric Pressure VSB - Visibility
WCI - Wind Chill Index E13G22 Wind - East Wind 13 mph/Gusts of 22 mph
Brainard Weather Map
UTC Time: 8/10/2020, 18:25
Your Time: